sat.trackr.live / text

‹ back to catalog

STARLINK-32364

NORAD 61622 · 2024-191B

PAYLOAD ACTIVE UNKNOWN

§ Identity

Operator
Country
US
Launch date
2024-10-23
Launch site
AFETR
Launch vehicle
Mass (kg)
RCS (m²)

Purposes: comms

External: N2YO · Heavens-Above · Gunter

§ Orbital elements

Epoch: 2026-05-24T20:05:47.716512Z

Period
94.27 min
Inclination
43.0029°
Eccentricity
0.0001190
Mean motion
15.27577034 rev/d
Perigee alt
482.2 km
Apogee alt
483.9 km
Semi-major
6,861.2 km
B*
3.4177e-5
RAAN
84.3372°
Arg perigee
272.2104°
Mean anomaly
87.8611°
Rev number
8,918

§ Raw data

STARLINK-323641 61622U 24191B   26144.83735783  .00000678  00000+0  34177-4 0  99912 61622  43.0029  84.3372 0001190 272.2104  87.8611 15.27577034 89181

JSON: /api/v1/satellites/61622 · /tle

For live sub-satellite position, see the globe view (requires WebGL).

§ Visibility from observer

Set your observer location to see the next 7 days of passes ≥ 10°. The values pass through the URL so the page stays shareable.

No JS? Fill the form by hand. The geolocation button needs JavaScript.